Location: Davidschlag
(48.4333°N, 14.2833°E)
Time: 04:07:03
(UTC+00:00)

STARLINK-1022 - Pass Details

Date: 27 February 2020
Orbit: 548 x 551 km, 53.0° (Epoch: 02 April)

Event Time Altitude Azimuth Distance (km) Brightness Sun altitude
Rises 18:39:20 0° 248° (WSW) 2,713 8.1 -20.1°
Reaches altitude 10° 18:41:34 10° 250° (WSW) 1,822 7.1 -20.4°
Maximum altitude 18:45:43 77° 336° (NNW) 571 3.6 -21.1°
Enters shadow 18:46:29 57° 45° (NE) 655 3.7 -21.2°
